Retour au catalogue

FENGYUN 1C DEB

ActifSSO
NORAD 31854·DEBRIS·🇨🇳 China

Lancé May 10, 1999 depuis Taiyuan Satellite Launch Center

Loading…

Prochains Passages (prochaines 24 heures)

TLE

FraisSource: Space-Track

Époque: Sep 14, 2026, 06:06 UTC

1 31854U 99025CJU 26257.25454584  .00000050  00000-0  57945-4 0  9994
2 31854  98.8543 257.9980 0073442  92.1770 268.7809 14.03381110731368

Suivez FENGYUN 1C DEB en temps réel avec AllMySat

Download on the App Store